FW7705 Weather Reports


Display with metric or nautical units.
time (UTC)temp
F
wind
direction
speed
MPH
gust
MPH
rain 1hr
in
rain 24hr
in
rain mn
in
humidity
%
barometer
mb
20260831005628 64 317 0.0 0.0 0.00 0.00 0.00 90 1020.6
20260831005124 64 317 0.0 0.0 0.00 0.00 0.00 89 1020.6
20260831004619 64 317 0.0 0.0 0.00 0.00 0.00 89 1020.6
20260831004115 64 317 0.0 0.0 0.00 0.00 0.00 88 1020.3
20260831003611 64 317 0.0 0.0 0.00 0.00 0.00 88 1020.5
20260831003107 64 317 0.0 0.0 0.00 0.00 0.00 88 1020.3
20260831002605 64 316 1.0 1.0 0.00 0.00 0.00 88 1020.1
20260831002100 65 317 0.0 0.0 0.00 0.00 0.00 88 1020.1
20260831001555 65 317 0.0 0.0 0.00 0.00 0.00 87 1019.8
20260831001052 65 317 0.0 0.0 0.00 0.00 0.00 87 1019.8
20260831000548 65 316 1.0 1.0 0.00 0.00 0.00 87 1019.7
20260831000047 65 316 1.0 2.0 0.00 0.00 0.00 86 1019.9
20260830235546 66 317 1.0 1.0 0.00 0.00 0.00 85 1019.8
20260830235042 66 317 0.0 0.0 0.00 0.00 0.00 84 1019.8
20260830234542 66 317 1.0 1.0 0.00 0.00 0.00 83 1019.7
20260830234038 66 302 3.0 3.0 0.00 0.00 0.00 83 1019.7
20260830233533 66 247 2.0 2.0 0.00 0.00 0.00 82 1019.9
20260830233029 66 270 2.0 2.0 0.00 0.00 0.00 82 1019.8
20260830232525 66 295 2.0 3.0 0.00 0.00 0.00 82 1019.6
20260830232021 67 278 3.0 4.0 0.00 0.00 0.00 81 1019.7
20260830231516 67 249 2.0 2.0 0.00 0.00 0.00 81 1019.7
20260830231015 67 248 3.0 4.0 0.00 0.00 0.00 81 1019.6
20260830230511 67 92 1.0 2.0 0.00 0.00 0.00 80 1019.6
20260830230011 67 244 1.0 1.0 0.00 0.00 0.00 80 1019.7
20260830225506 67 200 2.0 2.0 0.00 0.00 0.00 80 1020.0
20260830225006 67 77 2.0 2.0 0.00 0.00 0.00 81 1019.7
20260830224504 67 305 1.0 2.0 0.00 0.00 0.00 80 1019.9
20260830224001 67 288 3.0 3.0 0.00 0.00 0.00 81 1019.8
20260830223458 67 207 0.0 0.0 0.00 0.00 0.00 81 1019.8
20260830222957 68 182 1.0 1.0 0.00 0.00 0.00 80 1019.5
20260830222452 68 161 0.0 0.0 0.00 0.00 0.00 80 1019.7
20260830221947 68 251 2.0 2.0 0.00 0.00 0.00 79 1019.5
20260830221443 68 166 1.0 1.0 0.00 0.00 0.00 80 1019.7
20260830220939 68 307 1.0 1.0 0.00 0.00 0.00 79 1019.7
20260830220439 68 248 2.0 2.0 0.00 0.00 0.00 79 1019.6
20260830215936 68 246 3.0 3.0 0.00 0.00 0.00 78 1019.5
20260830215432 68 168 1.0 1.0 0.00 0.00 0.00 79 1019.7
20260830214926 68 338 2.0 3.0 0.00 0.00 0.00 77 1019.4
20260830214422 68 272 1.0 2.0 0.00 0.00 0.00 77 1019.6
20260830213922 68 227 2.0 2.0 0.00 0.00 0.00 77 1019.4
20260830213417 68 278 0.0 1.0 0.00 0.00 0.00 78 1019.6
20260830212913 68 278 1.0 1.0 0.00 0.00 0.00 77 1019.7
20260830212408 68 289 3.0 3.0 0.00 0.00 0.00 76 1019.6
20260830211903 68 259 0.0 0.0 0.00 0.00 0.00 77 1019.6
20260830211402 68 243 1.0 2.0 0.00 0.00 0.00 77 1019.7
20260830210858 69 170 1.0 1.0 0.00 0.00 0.00 76 1019.8
20260830210357 69 298 2.0 2.0 0.00 0.00 0.00 76 1019.7
20260830205855 69 354 2.0 2.0 0.00 0.00 0.00 76 1019.5
20260830205354 69 272 2.0 2.0 0.00 0.00 0.00 76 1019.7
20260830204849 69 126 0.0 1.0 0.00 0.00 0.00 75 1019.6
20260830204348 69 144 0.0 0.0 0.00 0.00 0.00 76 1019.6
20260830203844 69 143 0.0 0.0 0.00 0.00 0.00 77 1019.4
20260830203341 69 137 0.0 0.0 0.00 0.00 0.00 74 1019.6
20260830202839 69 38 2.0 2.0 0.00 0.00 0.00 74 1019.7
20260830202335 69 169 1.0 2.0 0.00 0.00 0.00 75 1019.4
20260830201831 69 142 1.0 1.0 0.00 0.00 0.00 75 1019.6
20260830201330 69 167 1.0 2.0 0.00 0.00 0.00 75 1019.7
20260830200825 69 58 1.0 1.0 0.00 0.00 0.00 75 1019.7
20260830200325 69 293 2.0 2.0 0.00 0.00 0.00 75 1019.8
20260830195821 69 20 2.0 3.0 0.00 0.00 0.00 75 1019.8
20260830195320 69 44 1.0 2.0 0.00 0.00 0.00 73 1019.6
20260830194819 69 289 1.0 2.0 0.00 0.00 0.00 74 1019.7
20260830194318 68 358 1.0 1.0 0.00 0.00 0.00 75 1019.7
20260830193814 68 324 1.0 1.0 0.00 0.00 0.00 74 1019.6
20260830193313 69 310 2.0 3.0 0.00 0.00 0.00 74 1019.8
20260830192809 69 340 4.0 4.0 0.00 0.00 0.00 73 1019.8
20260830192309 69 351 4.0 4.0 0.00 0.00 0.00 73 1020.0
20260830191805 70 347 4.0 4.0 0.00 0.00 0.00 72 1020.1
20260830191304 70 357 2.0 3.0 0.00 0.00 0.00 72 1019.7
20260830190800 70 307 1.0 2.0 0.00 0.00 0.00 72 1019.8
20260830190255 71 18 3.0 4.0 0.00 0.00 0.00 71 1019.9
20260830185753 71 10 3.0 3.0 0.00 0.00 0.00 71 1019.7
20260830185249 72 284 3.0 4.0 0.00 0.00 0.00 70 1019.5
20260830184749 72 317 3.0 3.0 0.00 0.00 0.00 68 1019.6
20260830184247 73 292 6.0 8.0 0.00 0.00 0.00 68 1019.6
20260830183743 73 356 4.0 4.0 0.00 0.00 0.00 73 1019.6
20260830183238 74 6 1.0 1.0 0.00 0.00 0.00 73 1019.6
20260830182738 74 257 2.0 2.0 0.00 0.00 0.00 71 1019.5
20260830182235 75 230 0.0 0.0 0.00 0.00 0.00 73 1019.6
20260830181731 75 206 0.0 1.0 0.00 0.00 0.00 69 1019.6
20260830181226 75 208 1.0 1.0 0.00 0.00 0.00 68 1019.6
20260830180725 75 290 1.0 1.0 0.00 0.00 0.00 69 1019.6
20260830180220 75 164 1.0 1.0 0.00 0.00 0.00 71 1019.6
20260830175719 75 224 0.0 0.0 0.00 0.00 0.00 75 1019.6
20260830175214 75 224 0.0 0.0 0.00 0.00 0.00 69 1019.7
20260830174709 74 224 0.0 0.0 0.00 0.00 0.00 70 1019.6
20260830174206 74 224 0.0 0.0 0.00 0.00 0.00 76 1020.0
20260830173705 75 289 3.0 3.0 0.00 0.00 0.00 66 1019.7
20260830173200 75 183 1.0 1.0 0.00 0.00 0.00 67 1019.9
20260830172656 75 157 1.0 1.0 0.00 0.00 0.00 67 1019.9
20260830172153 74 282 2.0 3.0 0.00 0.00 0.00 68 1019.8
20260830171653 75 192 1.0 2.0 0.00 0.00 0.00 69 1020.0
20260830171148 75 300 1.0 1.0 0.00 0.00 0.00 66 1019.9
20260830170643 74 287 0.0 0.0 0.00 0.00 0.00 69 1020.0
20260830170142 74 170 0.0 1.0 0.00 0.00 0.00 66 1020.0
20260830165637 74 114 1.0 2.0 0.00 0.00 0.00 66 1020.0
20260830165133 73 342 1.0 2.0 0.00 0.00 0.00 67 1020.1
20260830164629 75 313 3.0 3.0 0.00 0.00 0.00 67 1020.3
20260830164125 75 203 2.0 2.0 0.00 0.00 0.00 68 1020.2
20260830163622 75 288 2.0 2.0 0.00 0.00 0.00 69 1020.3
20260830163121 75 286 3.0 4.0 0.00 0.00 0.00 64 1020.4
20260830162616 75 152 2.0 2.0 0.00 0.00 0.00 65 1020.2
20260830162112 75 263 5.0 7.0 0.00 0.00 0.00 65 1020.5
20260830161612 74 254 4.0 4.0 0.00 0.00 0.00 67 1020.4
20260830161107 74 281 4.0 4.0 0.00 0.00 0.00 64 1020.4
20260830160603 73 180 1.0 1.0 0.00 0.00 0.00 70 1020.6
20260830160058 73 159 0.0 0.0 0.00 0.00 0.00 66 1020.5
20260830155554 73 263 2.0 3.0 0.00 0.00 0.00 68 1020.4
20260830155049 73 270 3.0 4.0 0.00 0.00 0.00 68 1020.6
20260830154544 72 194 2.0 2.0 0.00 0.00 0.00 71 1020.5
20260830154041 72 282 3.0 3.0 0.00 0.00 0.00 70 1020.7
20260830153537 73 285 3.0 3.0 0.00 0.00 0.00 68 1020.9
20260830153037 73 158 3.0 4.0 0.00 0.00 0.00 69 1020.9
20260830152531 72 201 5.0 6.0 0.00 0.00 0.00 69 1020.7
20260830152031 72 171 1.0 1.0 0.00 0.00 0.00 69 1020.5
20260830151530 70 98 1.0 1.0 0.00 0.00 0.00 73 1020.6
20260830151025 70 132 2.0 3.0 0.00 0.00 0.00 73 1020.5
20260830150525 70 142 1.0 2.0 0.00 0.00 0.00 74 1020.8
20260830150020 69 172 1.0 1.0 0.00 0.00 0.00 74 1020.6
20260830145519 69 172 0.0 0.0 0.00 0.00 0.00 76 1020.9
20260830145015 68 109 1.0 2.0 0.00 0.00 0.00 74 1020.8
20260830144510 68 170 0.0 1.0 0.00 0.00 0.00 76 1020.7
20260830144006 68 151 0.0 1.0 0.00 0.00 0.00 76 1020.8
20260830143502 67 136 2.0 3.0 0.00 0.00 0.00 75 1021.1
20260830143000 67 181 1.0 2.0 0.00 0.00 0.00 74 1020.9
20260830142455 67 163 0.0 1.0 0.00 0.00 0.00 75 1020.9
20260830141949 67 294 2.0 3.0 0.00 0.00 0.00 74 1020.6
20260830141445 68 122 0.0 0.0 0.00 0.00 0.00 73 1020.5
20260830140940 68 162 0.0 0.0 0.00 0.00 0.00 74 1020.5
20260830140435 68 153 0.0 0.0 0.00 0.00 0.00 72 1020.5
20260830135934 68 161 5.0 9.0 0.00 0.00 0.00 69 1020.6
20260830135430 68 230 4.0 6.0 0.00 0.00 0.00 71 1020.8
20260830134926 67 260 4.0 6.0 0.00 0.00 0.00 76 1020.8
20260830134421 66 155 0.0 0.0 0.00 0.00 0.00 76 1020.7
20260830133916 66 130 0.0 0.0 0.00 0.00 0.00 79 1020.9
20260830133412 66 156 2.0 2.0 0.00 0.00 0.00 76 1021.0
20260830132907 66 166 0.0 0.0 0.00 0.00 0.00 79 1020.9
20260830132403 66 136 0.0 0.0 0.00 0.00 0.00 77 1020.9
20260830131902 65 84 1.0 1.0 0.00 0.00 0.00 81 1021.0
20260830131402 64 161 0.0 1.0 0.00 0.00 0.00 82 1021.2
20260830130856 63 157 1.0 1.0 0.00 0.00 0.00 86 1021.0
20260830130352 63 156 1.0 1.0 0.00 0.00 0.00 89 1021.0
20260830125851 62 155 0.0 1.0 0.00 0.00 0.00 91 1021.2
20260830125347 62 155 0.0 0.0 0.00 0.00 0.00 90 1021.3
20260830124845 62 155 0.0 0.0 0.00 0.00 0.00 91 1021.2
20260830124344 62 155 0.0 0.0 0.00 0.00 0.00 91 1021.2
20260830123841 62 156 1.0 1.0 0.00 0.00 0.00 90 1021.4
20260830123338 61 155 0.0 0.0 0.00 0.00 0.00 86 1021.1
20260830122835 61 155 0.0 0.0 0.00 0.00 0.00 89 1021.3
20260830122330 60 155 0.0 0.0 0.00 0.00 0.00 93 1021.4
20260830121825 59 155 0.0 1.0 0.00 0.00 0.00 95 1021.4
20260830121325 59 155 1.0 1.0 0.00 0.00 0.00 97 1021.1
20260830120820 58 155 1.0 1.0 0.00 0.00 0.00 97 1021.1
20260830120316 58 159 1.0 1.0 0.00 0.00 0.00 98 1021.4
20260830115812 58 155 1.0 1.0 0.00 0.00 0.00 98 1021.1
20260830115308 57 153 1.0 1.0 0.00 0.00 0.00 99 1021.2
20260830114803 57 153 0.0 0.0 0.00 0.00 0.00 99 1021.2
20260830114259 57 153 0.0 0.0 0.00 0.00 0.00 99 1021.6
20260830113754 57 153 0.0 0.0 0.00 0.00 0.00 99 1021.5
20260830113249 56 153 0.0 0.0 0.00 0.00 0.00 99 1021.5
20260830112745 56 153 0.0 0.0 0.00 0.00 0.00 99 1021.6
20260830112241 56 153 0.0 0.0 0.00 0.00 0.00 99 1021.8
20260830111737 56 153 0.0 0.0 0.00 0.00 0.00 99 1021.6
20260830111232 56 153 0.0 1.0 0.00 0.00 0.00 99 1021.6
20260830110732 56 153 0.0 0.0 0.00 0.00 0.00 99 1021.6
20260830110229 55 153 0.0 0.0 0.00 0.00 0.00 99 1021.6
20260830105727 55 154 0.0 0.0 0.00 0.00 0.00 99 1021.6
20260830105223 55 115 0.0 0.0 0.00 0.00 0.00 99 1021.8
20260830104720 55 115 0.0 0.0 0.00 0.00 0.00 99 1021.5
20260830104217 55 115 0.0 0.0 0.00 0.00 0.00 99 1021.5
20260830103715 55 115 0.0 0.0 0.00 0.00 0.00 99 1021.5
20260830103211 55 115 0.0 0.0 0.00 0.00 0.00 99 1021.5
20260830102709 55 115 0.0 0.0 0.00 0.00 0.00 99 1021.6
20260830102205 55 115 0.0 0.0 0.00 0.00 0.00 99 1021.5
20260830101701 55 115 0.0 0.0 0.00 0.00 0.00 98 1021.6
20260830101156 55 115 0.0 0.0 0.00 0.00 0.00 98 1021.6
20260830100651 55 115 0.0 0.0 0.00 0.00 0.00 98 1021.8
20260830100150 55 115 0.0 0.0 0.00 0.00 0.00 98 1021.6
20260830095649 55 115 0.0 0.0 0.00 0.00 0.00 98 1021.6
20260830095146 55 115 0.0 0.0 0.00 0.00 0.00 97 1021.9
20260830094641 55 115 0.0 0.0 0.00 0.00 0.00 97 1021.6
20260830094137 55 115 0.0 0.0 0.00 0.00 0.00 96 1021.6
20260830093632 56 115 0.0 0.0 0.00 0.00 0.00 95 1021.9
20260830093129 57 115 0.0 0.0 0.00 0.00 0.00 95 1022.2
20260830092628 56 115 0.0 0.0 0.00 0.00 0.00 97 1022.0
20260830092126 56 115 0.0 0.0 0.00 0.00 0.00 98 1022.2
20260830091621 56 114 0.0 0.0 0.00 0.00 0.00 98 1022.0
20260830091120 57 114 0.0 0.0 0.00 0.00 0.00 98 1022.0
20260830090615 56 114 0.0 0.0 0.00 0.00 0.00 98 1022.0
20260830090110 56 114 0.0 0.0 0.00 0.00 0.00 98 1022.2
20260830085609 56 114 0.0 0.0 0.00 0.00 0.00 98 1022.0
20260830085106 56 114 0.0 0.0 0.00 0.00 0.00 98 1021.9
20260830084602 56 114 0.0 0.0 0.00 0.00 0.00 98 1022.0
20260830084101 56 114 0.0 0.0 0.00 0.00 0.00 98 1022.2
20260830083557 56 114 0.0 0.0 0.00 0.00 0.00 98 1021.9
20260830083057 56 114 0.0 0.0 0.00 0.00 0.00 97 1021.9
20260830082552 56 114 0.0 0.0 0.00 0.00 0.00 97 1022.3
20260830082047 56 114 0.0 0.0 0.00 0.00 0.00 97 1022.1
20260830081543 57 114 0.0 0.0 0.00 0.00 0.00 97 1022.2
20260830081042 57 114 0.0 0.0 0.00 0.00 0.00 97 1022.1
20260830080537 57 114 0.0 0.0 0.00 0.00 0.00 97 1022.3
20260830080032 56 114 0.0 0.0 0.00 0.00 0.00 96 1022.4
20260830075532 57 114 0.0 0.0 0.00 0.00 0.00 96 1022.3
20260830075027 57 114 0.0 0.0 0.00 0.00 0.00 95 1022.3
20260830074524 58 114 0.0 0.0 0.00 0.00 0.00 94 1022.3
20260830074019 58 114 0.0 0.0 0.00 0.00 0.00 96 1022.1
20260830073515 57 114 0.0 0.0 0.00 0.00 0.00 95 1022.5
20260830073010 58 114 0.0 0.0 0.00 0.00 0.00 94 1022.5
20260830072505 58 114 0.0 0.0 0.00 0.00 0.00 94 1022.4
20260830072005 58 114 0.0 0.0 0.00 0.00 0.00 94 1022.5
20260830071501 58 114 0.0 0.0 0.00 0.00 0.00 93 1022.4
20260830070958 58 114 0.0 0.0 0.00 0.00 0.00 93 1022.5
20260830070453 58 114 0.0 0.0 0.00 0.00 0.00 93 1022.2
20260830065953 58 164 1.0 2.0 0.00 0.00 0.00 95 1022.5
20260830065452 58 165 0.0 0.0 0.00 0.00 0.00 93 1022.2
20260830064950 58 154 1.0 2.0 0.00 0.00 0.00 94 1022.4
20260830064446 58 129 0.0 0.0 0.00 0.00 0.00 93 1022.3
20260830063941 58 129 0.0 0.0 0.00 0.00 0.00 92 1022.3
20260830063440 58 129 0.0 0.0 0.00 0.00 0.00 94 1022.3
20260830062940 58 129 0.0 0.0 0.00 0.00 0.00 94 1022.1
20260830062439 58 129 0.0 0.0 0.00 0.00 0.00 95 1022.3
20260830061934 57 129 1.0 1.0 0.00 0.00 0.00 97 1022.2
20260830061429 57 129 1.0 1.0 0.00 0.00 0.00 98 1022.3
20260830060926 57 129 0.0 0.0 0.00 0.00 0.00 98 1022.5
20260830060422 57 129 0.0 0.0 0.00 0.00 0.00 98 1022.4
20260830055917 57 129 0.0 0.0 0.00 0.00 0.00 99 1022.3
20260830055413 57 129 0.0 0.0 0.00 0.00 0.00 98 1022.3
20260830054908 57 129 0.0 0.0 0.00 0.00 0.00 98 1022.4
20260830054404 57 129 0.0 0.0 0.00 0.00 0.00 99 1022.2
20260830053859 56 129 0.0 0.0 0.00 0.00 0.00 98 1022.4
20260830053354 56 129 0.0 0.0 0.00 0.00 0.00 98 1022.3
20260830052854 56 129 0.0 0.0 0.00 0.00 0.00 98 1022.4
20260830052349 56 129 0.0 0.0 0.00 0.00 0.00 98 1022.3
20260830051844 56 129 0.0 0.0 0.00 0.00 0.00 98 1022.4
20260830051340 56 129 0.0 0.0 0.00 0.00 0.00 98 1022.5
20260830050838 56 129 0.0 0.0 0.00 0.00 0.00 98 1022.4
20260830050334 56 129 0.0 0.0 0.00 0.00 0.00 98 1022.3
20260830045832 56 129 0.0 0.0 0.00 0.00 0.00 98 1022.2
20260830045327 56 129 0.0 0.0 0.00 0.00 0.00 98 1022.3
20260830044826 56 129 0.0 0.0 0.00 0.00 0.00 98 1022.5
20260830044322 56 129 0.0 0.0 0.00 0.00 0.00 98 1022.4
20260830043817 56 129 0.0 0.0 0.00 0.00 0.00 97 1022.6
20260830043318 56 129 0.0 0.0 0.00 0.00 0.00 97 1022.5
20260830042815 56 129 0.0 0.0 0.00 0.00 0.00 97 1022.6
20260830042310 56 129 0.0 0.0 0.00 0.00 0.00 97 1022.5
20260830041809 56 129 0.0 0.0 0.00 0.00 0.00 97 1022.4
20260830041308 56 129 0.0 0.0 0.00 0.00 0.00 97 1022.4
20260830040804 57 129 0.0 0.0 0.00 0.00 0.00 98 1022.5
20260830040300 56 129 0.0 0.0 0.00 0.00 0.00 99 1022.3
20260830035758 56 129 0.0 1.0 0.00 0.00 0.00 98 1022.3
20260830035253 56 129 0.0 0.0 0.00 0.00 0.00 98 1022.2
20260830034748 55 129 0.0 0.0 0.00 0.00 0.00 98 1022.2
20260830034248 55 129 0.0 0.0 0.00 0.00 0.00 98 1022.1
20260830033744 55 129 0.0 0.0 0.00 0.00 0.00 98 1022.2
20260830033243 55 129 0.0 0.0 0.00 0.00 0.00 98 1022.3
20260830032739 55 129 0.0 0.0 0.00 0.00 0.00 98 1022.2
20260830032233 55 129 0.0 0.0 0.00 0.00 0.00 97 1022.3
20260830031728 55 129 0.0 0.0 0.00 0.00 0.00 97 1022.3
20260830031224 55 129 0.0 0.0 0.00 0.00 0.00 97 1022.2
20260830030719 55 129 0.0 0.0 0.00 0.00 0.00 97 1022.2
20260830030215 55 129 0.0 0.0 0.00 0.00 0.00 97 1022.3
20260830025714 55 129 0.0 0.0 0.00 0.00 0.00 96 1022.7
20260830025208 55 129 0.0 0.0 0.00 0.00 0.00 96 1022.5
20260830024703 56 129 0.0 0.0 0.00 0.00 0.00 96 1022.5
20260830024202 56 129 0.0 0.0 0.00 0.00 0.00 95 1022.7
20260830023659 56 129 0.0 0.0 0.00 0.00 0.00 95 1022.8
20260830023154 56 129 0.0 0.0 0.00 0.00 0.00 95 1022.5
20260830022648 56 129 0.0 0.0 0.00 0.00 0.00 95 1022.3
20260830022144 56 129 0.0 0.0 0.00 0.00 0.00 94 1022.3
20260830021643 56 129 0.0 0.0 0.00 0.00 0.00 94 1022.7
20260830021138 57 129 0.0 0.0 0.00 0.00 0.00 94 1022.5
20260830020637 57 129 0.0 0.0 0.00 0.00 0.00 93 1022.5
20260830020133 57 128 0.0 0.0 0.00 0.00 0.00 93 1022.4
20260830015632 57 129 0.0 0.0 0.00 0.00 0.00 93 1022.4
20260830015129 57 129 0.0 0.0 0.00 0.00 0.00 92 1022.5
20260830014624 58 129 0.0 0.0 0.00 0.00 0.00 90 1022.6
20260830014120 58 129 0.0 0.0 0.00 0.00 0.00 89 1022.7
20260830013620 58 128 0.0 0.0 0.00 0.00 0.00 90 1022.4
20260830013116 58 128 0.0 0.0 0.00 0.00 0.00 91 1022.6
20260830012615 58 128 0.0 0.0 0.00 0.00 0.00 90 1022.5
20260830012112 57 128 0.0 0.0 0.00 0.00 0.00 91 1022.4
20260830011612 58 128 0.0 0.0 0.00 0.00 0.00 90 1022.4
20260830011108 58 128 0.0 0.0 0.00 0.00 0.00 90 1022.4
20260830010602 58 129 0.0 0.0 0.00 0.00 0.00 90 1022.3
20260830010058 59 128 0.0 0.0 0.00 0.00 0.00 89 1022.4